Orbital Elements at Epoch 2459000.5 (2020-May-31.0) TDB
Reference: JPL 23 (heliocentric ecliptic J2000)
Element | Value | Uncertainty (1-sigma) | Units |
e | .2162787702675511 | 3.5839e-08 | |
a | 2.399121674997835 | 7.0966e-09 | au |
q | 1.880242589407076 | 8.66e-08 | au |
i | 2.983904704356898 | 3.514e-06 | deg |
node | 256.4264746333204 | 7.0666e-05 | deg |
peri | 65.89598060600564 | 7.1293e-05 | deg |
M | 73.19289615539213 | 7.5264e-06 | deg |
tp | 2458724.541821456072 (2019-Aug-29.04182146) | 2.8561e-05 | TDB |
period | 1357.303092159381 3.72 | 6.0224e-06 1.649e-08 | d yr |
n | .2652318425262433 | 1.1768e-09 | deg/d |
Q | 2.918000760588594 | 8.6315e-09 | au |
|
| | Orbit Determination Parameters
Additional Information
|